STARLINK-2252, 48595

Orbit data source: Space-Track

STARLINK-2252, 48595 is a payload satellite owned by SpaceX/Seattle (US) in LEO that was launched on Sat, 15 May 2021 UTC via an FALCON 9 launch vehicle from the Air Force Eastern Test Range (AFETR). Payload-class satellites include a variety of spacecraft equipped with specific instruments for various scientific and technological missions. These include communications satellites like Starlink; space stations such as the ISS; scientific satellites like the Hubble; Earth observation satellites from companies like Planet Labs, Umbra, and HawkEye 360; GPS; miniature CubeSats for education and research; and military/defense satellites.

Loading next visibility...
Identifier
48595, 2021-041AU
Orbit
LEO
Country
Flag of USUS
Related business
Manufacturer
SpaceX/Seattle
Mission
Operational Commercial Communications
Bus & Motor
STARLINK, Unknown motor
Mass
260 kg wet, ~248 kg dry
Launch date (UTC)
2021-05-15 (5 years ago)
Launch vehicle
FALCON 9
Launch site
Air Force Eastern Test Range (AFETR)
Object type
Payload
Rocket body
Debris
Shape & HBR
Box + 1 Pan, 10.1 m
Radar Cross Section
13.562 m², Large (>1 m²)

Expand to show TLE details & history
Last TLE update: 2 days ago

TLE from 2 days ago
0 STARLINK-2252
1 48595U 21041AU  26171.31304480  .00000650  00000-0  32709-4 0  9995
2 48595  53.1596  31.4801 0001287  77.5381 282.5764 15.31706364281942
Epoch: 2026-06-20T07:30Z
TLE epoch observation values (Epoch: 2026-06-20T07:30:47.070Z)
Latitude
-0.00006°
Longitude
10.25446°
Altitude
471.429 km
Speed
7.632 km/s
True Right ascension
02h 05m 55s
True Declination
0° 00' 00"
Sunlit
Object was in daylight at epoch
Visualization orbit readout
Latitude
Unknown
Longitude
Unknown
Altitude
Unknown
Speed
Unknown
Apparent Right ascension
Unknown
Apparent Declination
Unknown
Sunlit
N/A
Visualization observer readout
Local Sidereal Time
21:36:39
Azimuth
Unknown
Elevation
Unknown
Doppler factor
Unknown
Orbital elements
Apogee altitude
471.859 km
Perigee altitude
470.096 km
Semi-major axis
6,849.115 km
Eccentricity
0.00013
Inclination
53.1596°
RAAN
31.4801°
Arg. of periapsis
77.5381°
True anomaly
282.56201°
Mean anomaly
282.5764°
Eccentric anomaly
282.5692°
Mean motion
3.82905 °/min
Orbital period
94.02 mins
BSTAR
0.000032709
Loading maneuver chart data...
Computing Atmospheric mass density...

Documentation

Showing up to 5 results
|